Regional Weather Roundup
Issued by NWS

Home | Current Version | Previous Version | Text Only | Print | Product List | Glossary On
Versions: 1 2 3 4 5 6 7 8 9 10 11 12 13 14 15 16 17 18 19 20 21 22 23 24 25 26 27
000
ASUS45 KBOU 232307
RWRCO

WEATHER ROUNDUP FOR COLORADO
NATIONAL WEATHER SERVICE DENVER/BOULDER CO
400 PM MST THU FEB 23 2017

NOTE: "FAIR" INDICATES FEW OR NO CLOUDS BELOW 12000 FEET WITH NO
SIGNIFICANT WEATHER AND/OR OBSTRUCTIONS TO VISIBILITY.

COZ001>005-013-030-031-240000-
...NORTHWEST COLORADO...

CITY           SKY/WX    TMP DP  RH WIND       PRES   REMARKS
CRAIG          CLOUDY    27  15  61 W16       29.65R WCI  15
HAYDEN         PTSUNNY   27   9  46 W9G16     29.64R WCI  17
MEEKER         LGT SNOW  26  20  77 W9        29.67R VSB 3/4 WCI  17
MOUNT WERNER   NOT AVBL
STEAMBOAT SPGS CLOUDY    23  15  69 CALM      29.64R
WALDEN         NOT AVBL
$$

COZ006>008-011-240000-
...WEST CENTRAL VALLEYS...

CITY           SKY/WX    TMP DP  RH WIND       PRES   REMARKS
GRAND JUNCTION CLOUDY    39  15  37 NW13      29.70R
MONTROSE       FAIR      37   3  24 W16G23    29.71R
EAGLE          PTSUNNY   30   9  40 W16G24    29.66R WCI  19
RIFLE          FAIR      32  16  51 W7        29.70R WCI  26
DELTA          FAIR      42   2  18 W14G24    29.71R
NUCLA          FAIR      37  -4  17 NW17G24   29.75R
$$

COZ017>023-064>068-240000-
...SOUTHWEST COLORADO...

CITY           SKY/WX    TMP DP  RH WIND       PRES   REMARKS
DURANGO        PTSUNNY   33   2  26 W24       29.70R WCI  20
CORTEZ         PTSUNNY   37   6  27 W15       29.74R
PAGOSA SPRINGS CLOUDY    30   2  30 W16G26    29.68S WCI  18
TELLURIDE      CLOUDY    19  10  65 NW5       29.68R WCI  13
WOLF CREEK PAS CLOUDY     5   1  85 SW26G40   29.60R WCI -18
$$

COZ009-010-012-014-032>034-037-058>063-240000-
...CENTRAL COLORADO...

CITY           SKY/WX    TMP DP  RH WIND       PRES   REMARKS
ASPEN          PTSUNNY   22  11  62 S8        29.62R WCI  12
BUENA VISTA    PTSUNNY   26   0  32 SW16G23   29.62R WCI  13
COPPER MTN     CLOUDY     9  -8  47 MISG      29.51R
BERTHOUD PASS  CLOUDY     0  -9  65 MISG      29.47R HAZE
COTTONWOOD PAS LGT SNOW  19   0  42 W16G30    29.58R WCI   5
GUNNISON       FAIR      22  13  68 N10G20    29.66R WCI  11
KREMMLING      PTSUNNY   34   3  27 W17G24    29.63R WCI  23
LEADVILLE      LGT SNOW  11   4  73 NW12      29.57R WCI  -3
MONARCH PASS   FAIR       7   0  72 W36G47    29.61R WCI -18
SALIDA         FAIR      33  -1  23 W13G20    29.69F WCI  24
SUNLIGHT       NOT AVBL
WILKERSON PASS PTSUNNY   14  -8  37 W14G24    29.53R WCI  -1
$$

COZ069>075-240000-
...SAN LUIS VALLEY/SANGRE DE CRISTO MOUNTAINS...

CITY           SKY/WX    TMP DP  RH WIND       PRES   REMARKS
ALAMOSA        FAIR      33   7  33 W18G26    29.63R WCI  22
LA VETA PASS   FAIR      23   5  46 S29G54    29.50R WCI   6
SAGUACHE       FAIR      28   3  34 NW22G35   29.63R WCI  15
$$

COZ035-036-038>040-240000-
...NORTHERN COLORADO FRONT RANGE...

CITY           SKY/WX    TMP DP  RH WIND       PRES   REMARKS
DENVER INTL AP FLURRIES  25  21  85 N20G29    29.65R WCI  11
DMNS CITY PARK   N/A     24  23  94 N17G24    29.67R WCI  11
AURORA         LGT SNOW  25  25  99 N22G30    29.64R FOG     WCI  10
FRONT RANGE AP CLOUDY    28  25  86 N22       29.64  WCI  15
ERIE MUNI ARPT LGT SNOW  27  22  83 N16       29.69R WCI  14
BOULDER MUN AP LGT SNOW  27  23  86 N10       29.69R WCI  17
CENTENNIAL     SNOW      26  24  92 N21G28    29.62R VSB 1/4 WCI  12
BROOMFIELD     LGT SNOW  25  23  93 N15G22    29.66R VSB 3/4 WCI  12
FORT COLLINS   PTSUNNY   24  18  77 N20       29.71R WCI  10
LONGMONT       LGT SNOW  28  22  79 N14G22    29.72R VSB 1   WCI  16
$$

COZ041-046-047-076>085-087-088-240000-
...PIKES PEAK/PALMER DIVIDE AND SOUTHERN FOOTHILLS...

CITY           SKY/WX    TMP DP  RH WIND       PRES   REMARKS
COLO. SPRINGS  PTSUNNY   38  21  50 N23       29.54R
A. F. ACADEMY  PTSUNNY   31  22  67 N18G28    29.55R WCI  20
SCHRIEVER AFB  PTSUNNY   33  22  62 N16G26    29.55R WCI  23
ELLICOTT       CLOUDY   N/A N/A N/A N17       29.53R
FALCON         CLOUDY    31  22  68 N16G23    29.55R WCI  20
FORT CARSON    FAIR      40  21  46 N12       29.54R
LIMON          CLOUDY    30  27  88 N17G25    29.58R WCI  18
MONUMENT HILL  CLOUDY    27  23  86 NW14      29.58R FOG     WCI  15
TRINIDAD       FAIR      48   0  13 W29G41    29.54R
$$

COZ042>045-048>051-090-091-240000-
...NORTHEAST COLORADO...

CITY           SKY/WX    TMP DP  RH WIND       PRES   REMARKS
GREELEY ARPT   CLOUDY    25  20  81 N18       29.72R WCI  11
AKRON          LGT SNOW  23  20  88 N17       29.65R FOG     WCI   9
BURLINGTON     CLOUDY    31  28  89 N13       29.59R WCI  21
WRAY           NOT AVBL
STERLING       LGT SNOW  27  23  86 N12       29.69R WCI  16
HOLYOKE        LGT SNOW  30  27  86 N9        29.68R VSB 3/4 WCI  22
FORT MORGAN    CLOUDY    24  21  89 N16G23    29.69R WCI  11
$$

COZ086-089-092>099-240000-
...SOUTHEAST COLORADO...

CITY           SKY/WX    TMP DP  RH WIND       PRES   REMARKS
PUEBLO         FAIR      50   0  12 W24G31    29.52R
LA JUNTA       PTSUNNY   52  20  28 NW10G20   29.50R
LAMAR          FAIR      49  32  52 N20       29.48R
SPRINGFIELD      N/A     57   9  14 NW17G32   29.46R
$$




USA.gov is the U.S. government's official web portal to all federal, state and local government web resources and services.